Theta_e
271 272 272 271 271 271 270 272 269 272 273 277 280 282 284 287 289 290 291 292 293 293 293 291 289 289 289 290 292 292 289 288 287 287 287 286 285 284 284 284 285 285 284 284
267 271 271 269 272 272 272 273 273 274 274 281 285 286 285 286 287 288 288 290 290 291 290 289 287 287 287 287 287 289 287 286 287 286 285 285 284 283 283 284 284 283 283 283
264 269 268 264 269 271 272 274 273 269 276 281 279 280 281 282 283 284 286 288 288 289 288 289 287 288 287 287 287 287 287 286 286 285 285 284 283 282 282 282 284 282 282 283
265 263 259 270 275 274 272 274 277 277 278 280 279 281 282 284 284 284 283 284 285 286 288 289 288 287 288 287 287 287 287 286 285 285 285 283 282 281 282 283 282 281 282 282
263 263 266 269 272 272 272 272 277 276 278 279 280 281 284 286 284 283 284 285 286 286 286 287 288 287 287 286 287 286 286 286 285 285 284 282 281 281 283 282 283 283 283 282
260 260 259 269 275 278 277 268 278 277 277 278 278 274 279 283 283 283 285 285 285 286 285 285 287 287 287 286 286 286 287 287 286 285 285 282 283 282 282 282 283 283 282 283
265 263 266 273 276 278 266 269 278 278 278 278 276 279 281 283 283 284 285 285 286 284 282 284 287 287 286 286 286 288 288 287 286 285 285 284 284 283 280 281 282 281 282 282
266 262 260 276 276 270 276 279 279 279 279 279 280 280 282 282 283 284 284 286 285 281 281 283 285 286 286 286 287 287 287 286 285 285 285 285 284 281 280 280 280 280 280 281
268 268 276 279 279 282 281 279 279 279 280 280 280 280 282 282 283 284 285 286 283 281 282 281 282 286 286 286 285 285 285 285 284 283 284 284 283 281 280 280 280 280 279 280
271 274 276 278 280 281 281 280 281 281 282 281 280 281 281 282 283 283 284 285 282 280 280 279 281 281 284 283 282 284 284 283 282 282 282 282 283 282 283 281 280 281 280 281
271 275 277 278 279 280 280 281 280 282 282 281 281 281 282 282 283 283 283 283 283 280 279 279 279 279 280 280 281 282 282 281 281 282 282 281 282 283 283 284 283 283 283 283
270 276 276 276 279 280 279 279 280 280 279 281 282 281 282 282 283 282 282 279 279 279 278 277 276 275 276 278 281 281 281 280 281 281 281 281 281 281 284 285 284 285 286 285
275 279 279 279 280 280 279 279 280 279 280 280 281 282 282 281 280 279 278 276 275 274 275 276 274 273 274 276 279 280 282 281 281 280 280 280 280 281 281 282 284 284 285 285
279 278 276 278 277 280 280 280 280 279 279 279 280 281 280 276 276 276 274 274 273 272 271 272 272 271 272 275 276 277 279 280 281 281 281 281 281 281 282 282 281 282 285 285
277 278 278 279 279 278 278 277 275 276 278 279 280 277 275 273 273 271 271 273 271 269 268 268 269 269 270 272 275 276 277 278 279 280 281 281 280 280 280 280 280 281 281 280
267 268 267 268 273 275 274 274 273 276 277 276 276 275 272 272 270 268 267 267 269 266 265 265 267 267 269 271 274 277 276 275 277 278 278 279 279 279 278 279 279 279 279 279
262 266 265 266 263 265 266 268 270 271 272 273 274 271 271 269 268 266 266 265 264 263 263 263 264 266 267 270 275 278 278 277 277 279 279 279 279 279 279 279 278 278 279 279
259 260 259 259 260 261 262 265 266 268 269 270 269 267 267 267 265 263 263 264 265 264 262 262 265 265 266 270 273 276 277 276 276 277 277 276 276 276 276 276 275 275 275 275
258 256 257 258 258 259 261 263 265 267 267 267 265 262 262 261 261 261 261 261 261 262 260 262 266 264 265 269 270 271 271 270 270 269 270 269 269 269 269 270 269 269 270 270
257 256 257 257 259 260 261 264 265 264 265 264 263 261 260 260 260 260 260 258 259 259 261 261 262 263 264 264 267 268 267 267 267 266 266 266 267 266 266 266 267 267 267 267
257 255 256 258 260 260 261 262 263 261 261 262 261 259 257 258 258 260 261 260 259 261 261 261 261 263 263 264 265 265 265 264 264 264 264 264 264 264 264 265 265 265 265 266
255 254 256 259 259 259 259 260 261 260 259 259 259 259 258 258 258 257 256 257 260 261 262 261 261 260 262 263 263 263 263 262 262 262 262 262 263 262 262 262 262 263 263 263
255 257 259 259 259 258 258 258 258 258 257 257 257 257 256 256 258 261 259 258 261 260 262 262 261 260 260 261 261 261 260 260 260 259 259 259 259 259 259 259 259 260 260 260
257 258 259 259 259 258 257 257 256 256 256 256 256 256 258 257 256 257 258 257 257 259 259 259 260 261 258 258 258 258 258 258 258 258 257 256 257 257 257 257 257 258 257 257
258 259 259 258 258 257 257 257 257 256 256 256 256 256 256 257 257 256 257 256 258 257 256 257 259 257 256 256 256 255 255 255 255 256 256 256 256 256 256 256 256 257 257 257
258 258 258 258 258 258 258 258 256 256 256 255 255 256 256 257 256 256 256 255 255 255 255 255 255 255 255 255 255 255 256 256 256 255 255 255 256 256 256 256 256 256 256 256
258 258 258 257 258 258 257 257 256 255 256 256 254 255 256 256 255 255 255 255 255 254 254 254 255 254 255 256 255 255 255 255 253 255 255 255 255 255 255 255 255 255 255 255
Wind_Speed
11 15 16 18 21 20 16 15 15 23 20 19 22 23 26 24 21 19 20 21 13 9 6 7 8 8 8 9 12 12 12 11 11 10 9 9 9 8 8 7 6 6 7 6
8 14 17 20 18 16 21 18 23 24 29 18 17 19 19 19 17 17 19 16 15 12 8 8 10 12 12 12 11 12 12 12 10 11 10 10 9 9 9 8 8 7 7 7
15 9 9 12 14 19 13 15 16 19 14 12 14 17 17 21 20 20 21 17 17 15 10 9 11 12 14 14 13 13 13 12 12 12 12 11 10 10 10 10 9 9 8 7
11 2 13 11 10 13 16 18 13 12 13 14 14 18 21 19 12 12 18 21 20 16 12 11 6 11 10 12 15 16 14 13 12 13 13 11 11 11 10 9 11 9 9 8
7 10 12 16 16 17 6 12 6 10 14 17 18 22 16 6 12 21 22 21 19 17 15 13 10 10 12 13 13 14 15 14 14 14 14 13 13 13 10 10 10 9 6 9
4 9 11 11 9 8 8 15 9 7 13 16 17 13 13 16 22 24 24 21 22 18 15 14 11 9 13 14 15 17 17 17 15 15 15 15 14 13 10 9 9 7 8 8
15 13 8 16 18 6 14 11 7 11 12 14 12 11 19 21 23 22 22 24 19 13 14 14 7 10 14 13 18 16 13 13 14 14 15 15 13 9 9 10 7 8 8 7
9 7 12 18 7 14 10 13 8 15 13 14 15 17 17 19 21 23 24 22 14 12 12 8 6 10 12 14 8 9 11 12 13 13 11 10 14 11 10 9 9 8 8 7
10 9 9 9 5 6 8 11 13 14 17 16 15 17 19 20 20 22 23 17 11 10 10 5 5 7 10 6 8 9 10 11 11 11 11 11 12 11 10 10 9 8 8 7
11 20 19 11 11 12 10 12 13 15 17 17 18 17 18 17 18 18 19 13 9 10 7 4 3 3 0 6 6 9 10 9 9 11 10 9 8 8 7 9 9 8 8 8
9 19 14 12 11 16 15 12 13 14 15 16 17 17 17 14 18 15 17 7 8 9 6 5 5 7 6 3 6 6 7 7 8 7 10 9 8 9 9 8 10 10 9 8
12 17 10 13 12 14 13 15 14 15 17 14 12 15 14 13 14 14 11 6 5 7 6 5 6 7 8 6 3 5 7 6 6 6 7 7 7 5 9 9 12 14 9 9
18 18 14 15 15 17 16 18 16 16 15 11 13 11 12 12 12 11 7 6 4 4 7 5 5 7 8 7 5 3 4 5 5 5 6 6 6 5 6 7 14 15 17 17
16 16 15 19 13 14 12 14 12 9 8 10 12 8 6 9 11 6 5 5 4 4 5 6 6 7 7 7 5 4 3 4 4 4 5 5 5 6 5 6 6 7 14 14
14 10 18 17 13 12 9 9 9 11 10 8 5 6 5 8 7 5 5 4 3 5 6 7 6 7 8 6 4 4 2 1 2 3 3 4 4 4 4 4 4 4 2 3
10 7 8 6 14 13 9 9 8 11 5 5 8 5 5 2 2 5 6 7 1 5 7 7 7 9 8 7 5 3 3 4 3 3 4 4 4 4 3 3 3 3 3 4
5 5 5 6 4 5 5 5 6 6 8 8 6 4 3 4 4 2 3 4 4 8 7 8 9 9 9 7 5 3 3 4 6 5 4 4 4 3 3 2 2 1 0 1
5 7 7 9 10 11 11 8 9 9 8 5 1 2 1 2 3 2 3 3 1 7 9 10 10 9 9 9 7 6 6 7 7 7 7 7 7 6 6 6 6 5 5 5
3 8 8 8 8 10 10 7 7 6 3 2 4 6 4 4 3 3 3 4 8 7 10 10 13 10 10 10 8 7 8 9 9 8 8 9 9 8 8 7 7 7 6 6
7 5 7 8 7 5 7 5 2 3 3 5 6 6 7 6 5 5 5 10 8 5 7 10 8 9 9 10 10 8 9 10 10 9 8 9 9 9 8 10 8 8 7 7
8 5 7 5 5 5 5 6 4 6 5 5 6 7 8 6 6 4 7 7 9 9 8 11 9 7 8 8 9 9 9 9 10 9 9 9 9 9 9 9 9 8 8 8
5 5 6 4 3 5 8 7 6 6 8 8 8 7 8 8 7 10 10 7 5 8 7 7 8 10 8 10 8 9 9 10 9 8 8 8 8 8 8 8 8 8 8 8
5 3 2 2 3 4 6 8 9 10 8 7 8 9 7 5 5 5 7 8 5 8 8 9 11 13 13 9 9 9 10 10 9 9 8 8 8 8 7 7 7 6 6 7
3 2 3 4 4 5 8 7 9 8 7 9 10 8 4 6 7 6 6 7 9 10 11 9 11 14 12 8 9 9 9 9 9 8 8 8 7 6 6 5 5 4 4 4
2 3 4 5 6 6 7 6 7 8 9 10 9 7 7 7 5 3 4 6 11 9 9 12 13 12 8 7 8 8 7 6 6 6 6 5 4 4 4 3 3 3 2 2
4 5 5 7 5 4 4 5 6 6 6 7 6 6 6 6 6 6 7 8 8 8 7 5 6 7 7 7 6 6 6 6 6 5 5 4 4 3 3 2 2 2 2 2
6 6 5 6 6 5 5 6 7 7 6 6 6 6 6 6 7 7 5 5 6 5 5 5 5 6 5 4 5 5 5 4 4 3 3 3 3 2 2 2 2 3 3 2
Wind_Direction
267 276 278 278 288 287 267 253 252 280 291 302 291 285 293 303 311 312 311 309 311 285 263 224 204 195 181 182 177 174 170 169 175 164 158 154 158 160 164 171 170 165 158 170
268 279 274 272 267 270 280 272 261 271 272 276 322 316 307 309 319 314 300 306 301 296 260 231 214 200 187 182 177 171 173 180 166 163 162 168 163 168 173 174 168 172 179 181
270 300 305 271 250 253 267 271 274 274 305 314 309 312 309 307 299 296 301 313 311 307 277 260 219 204 199 191 171 178 180 176 174 169 173 173 166 167 180 181 175 190 191 186
273 312 256 267 276 275 282 278 294 303 306 325 319 303 298 284 303 328 320 309 302 299 294 277 232 205 195 180 184 185 185 181 174 174 176 170 168 180 184 181 186 190 195 195
246 243 291 295 275 271 246 278 257 318 319 321 328 311 298 128 334 322 309 305 296 291 283 284 247 204 190 184 183 182 188 184 178 177 176 172 179 184 184 183 186 193 192 192
164 240 254 261 266 227 257 271 268 299 311 311 329 314 306 321 317 310 305 300 298 291 285 278 251 189 187 189 183 192 190 188 179 179 182 182 183 184 177 192 192 185 195 201
224 237 247 255 254 247 247 288 306 304 308 301 305 286 289 308 313 306 303 301 297 288 276 270 242 189 193 193 199 196 185 178 179 183 184 181 178 171 170 189 187 190 197 199
224 235 256 244 219 228 261 299 276 286 284 296 297 303 293 307 313 312 310 307 305 296 285 276 248 198 198 204 186 169 172 178 180 179 178 176 174 169 172 177 185 193 200 208
208 231 255 191 223 222 267 271 277 274 276 292 300 302 299 314 317 314 314 308 315 306 300 306 291 236 202 169 144 153 163 176 177 173 177 175 178 172 177 175 187 195 197 208
223 244 247 228 239 251 266 257 269 269 264 281 299 294 297 313 314 313 314 311 331 319 320 328 339 353 304 154 145 159 165 170 167 168 175 175 177 166 201 184 187 196 199 209
240 255 258 260 241 256 270 264 257 264 260 272 286 284 296 311 310 311 310 313 341 331 347 9 35 42 35 93 138 145 144 152 166 170 176 180 194 177 189 209 197 196 210 205
234 248 246 257 260 257 258 268 271 273 279 276 263 282 294 306 306 312 303 322 340 336 340 16 28 43 34 25 78 138 147 159 168 162 174 177 180 175 213 224 208 224 224 208
244 254 259 259 263 266 263 267 272 270 272 268 284 274 292 308 311 308 313 321 1 351 335 359 27 31 27 20 30 73 127 146 151 154 163 166 166 170 202 216 228 225 229 230
238 255 264 256 254 264 261 259 261 259 258 269 274 273 302 306 306 303 317 325 21 20 2 354 13 22 8 13 35 58 90 109 146 161 156 156 164 189 200 207 209 218 230 231
243 232 242 264 268 262 262 276 268 269 272 274 261 279 319 306 309 331 330 320 50 47 11 5 7 3 352 3 27 50 53 98 133 145 133 139 155 171 189 200 216 228 225 233
319 301 301 265 264 278 288 290 266 277 285 296 296 295 317 289 18 22 5 355 324 42 7 359 0 342 340 352 1 58 81 97 108 124 131 144 150 158 165 182 196 215 223 240
342 328 342 306 346 324 323 331 309 315 305 288 290 309 269 157 149 125 41 17 26 51 15 5 339 340 342 342 356 55 84 101 112 113 116 120 125 126 127 140 154 178 256 9
262 281 278 278 286 296 292 287 286 289 287 311 345 66 107 178 134 95 33 328 82 71 31 6 342 352 358 5 25 49 65 65 64 70 71 68 69 65 65 65 53 46 31 19
271 279 280 287 279 270 270 273 293 310 321 125 105 93 89 75 68 57 40 47 37 34 4 3 4 13 20 28 44 55 66 70 66 61 64 66 61 57 58 58 55 48 39 34
313 306 303 287 277 261 293 322 332 53 43 102 111 110 89 64 68 82 86 69 43 10 352 16 17 31 33 34 49 65 71 73 74 71 65 67 67 67 65 59 60 55 50 47
314 323 314 311 315 321 353 3 26 53 43 66 92 79 76 57 40 21 67 67 17 8 30 39 38 38 43 47 56 63 68 71 68 68 67 69 73 68 66 62 60 56 52 50
332 336 313 326 341 12 25 34 47 70 66 64 68 78 81 74 77 70 53 44 18 22 55 54 51 46 55 63 64 67 68 70 70 68 67 68 70 70 65 59 56 51 48 47
321 325 327 7 21 50 49 49 50 51 54 56 62 61 60 52 31 76 77 13 44 52 60 59 63 61 60 61 64 68 69 69 70 68 68 67 66 65 62 56 53 49 46 42
333 24 79 76 69 63 63 47 57 61 64 59 54 39 59 82 63 47 63 59 54 55 61 53 53 56 59 58 61 65 66 66 69 70 71 66 65 65 61 57 59 49 49 47
63 79 78 86 89 82 86 86 76 62 65 65 58 51 51 46 72 66 71 66 60 71 69 52 61 63 69 70 66 67 71 68 64 72 70 72 68 66 60 50 40 31 25 20
63 71 73 71 80 90 87 85 83 68 76 80 63 53 57 63 69 67 59 57 59 63 65 58 55 60 62 63 70 70 69 67 62 59 59 58 52 51 40 24 14 358 340 325
72 80 86 77 60 68 76 81 89 78 68 79 82 47 47 52 53 59 64 69 68 67 64 57 54 58 70 78 75 70 69 71 56 62 64 60 49 31 8 348 332 317 304 294